Regional Weather Roundup
Issued by NWS

Home | Current Version | Previous Version | Graphics & Text | Print | Product List | Glossary On
Versions: 1 2 3 4 5 6 7 8 9 10 11 12 13 14 15 16 17 18 19 20 21 22 23 24 25 26 27 28 29 30 31 32 33 34 35 36 37 38 39 40 41 42 43 44 45 46 47 48 49 50
870
ASUS43 KDTX 300310
RWRMI
MICHIGAN HOURLY REGIONAL WEATHER ROUNDUP
NATIONAL WEATHER SERVICE DETROIT/PONTIAC MI
1100 PM EDT MON AUG 29 2016

NOTE: "FAIR" INDICATES FEW OR NO CLOUDS BELOW 12,000 FEET WITH NO
SIGNIFICANT WEATHER AND/OR OBSTRUCTION TO VISIBILITY.

MIZ047>049-052>055-059>063-066>070-074>076-081>083-300400-
SOUTHEAST LOWER MICHIGAN

CITY           SKY/WX    TMP DP  RH WIND       PRES   REMARKS
ADRIAN         PTCLDY    70  65  84 CALM      30.22F
ALMA           CLEAR     67  67 100 CALM      30.20F
ANN ARBOR      CLEAR     65  65 100 CALM      30.21F
BAD AXE        CLEAR     62  59  91 S3        30.21F
CARO           CLEAR     66  65  96 CALM      30.20F
DETROIT CITY   CLEAR     71  65  81 CALM      30.21F
DETROIT        PTCLDY    72  68  87 CALM      30.21F
FLINT          CLEAR     70  65  84 CALM      30.21F
GROSSE ILE     CLEAR     69  67  93 CALM      30.20F
HILLSDALE      PTCLDY    70  67  90 SE5       30.21F
HOWELL         CLEAR     68  65  92 CALM      30.21S

CITY           SKY/WX    TMP DP  RH WIND       PRES   REMARKS
JACKSON        PTCLDY    71  67  87 SE5       30.20F
LAMBERTVILLE   CLEAR     65  64  94 CALM      30.21F
LANSING        PTCLDY    70  66  87 CALM      30.20F
LAPEER         FAIR      67  65  93 CALM      30.22F
MASON          PTCLDY    70  65  86 SE3       30.21F
MONROE         CLEAR     65  65 100 N8        30.19F
MT. CLEMENS    PTCLDY    70  61  73 E5        30.19F
PONTIAC        PTCLDY    73  62  68 SE3       30.21F
PORT HURON     CLEAR     61  61 100 CALM      30.22F
TRI CITIES     CLEAR     71  67  87 E3        30.20F
MIDLAND        FAIR      66  65  98 CALM      30.18F
TROY           CLEAR     75  58  55 CALM      30.23F
SAGINAW HB     CLEAR     68  64  88 CALM      30.19F
$$
MIZ043>046-050>051-056>058-064>065-071>073-077>080-300400-
SOUTHWEST LOWER MICHIGAN

CITY           SKY/WX    TMP DP  RH WIND       PRES   REMARKS
BATTLE CREEK   MOCLDY    74  69  85 SE5       30.20F
BENTON HARBOR  CLEAR     73  70  90 CALM      30.17F
BIG RAPIDS     CLEAR     68  66  94 CALM      30.19F
COLDWATER      PTCLDY    72  69  90 SE6       30.20F
FREMONT        FAIR      69  68  98 CALM      30.18F FOG
HOLLAND        CLOUDY    72  69  90 CALM      30.18F
GRAND RAPIDS   MOCLDY    73  68  84 N3        30.19F
IONIA          FAIR      69  67  92 E6        30.19F
KALAMAZOO      PTCLDY    75  68  78 SE3       30.19F
LUDINGTON        N/A     67  67 100 CALM      30.16F FOG
MARSHALL       MOCLDY    71  70  98 CALM      30.20F
MOUNT PLEASANT   N/A     67  66  97 CALM      30.19F FOG
MUSKEGON       MOCLDY    72  69  90 CALM      30.18F
SOUTH HAVEN    MOCLDY    74  73  94 CALM      30.17F
$$
MIZ016>042-300400-
NORTHERN LOWER MICHIGAN

CITY           SKY/WX    TMP DP  RH WIND       PRES   REMARKS
ALPENA         PTCLDY    63  59  87 CALM      30.18F
BEAVER ISLAND  CLEAR     71  65  81 SW8       30.15S
BELLAIRE       PTCLDY    66  64  94 CALM      30.17S
CADILLAC       PTCLDY    66  65  94 CALM      30.19F
CHARLEVOIX     PTCLDY    71  66  84 S3        30.18F
FRANKFORT      PTCLDY    67  65  91 CALM      30.17S
GAYLORD        PTCLDY    69  63  81 SW3       30.19F
GRAYLING       CLEAR     65  64  94 CALM      30.20F
HARBOR SPRINGS CLEAR     67  65  91 CALM      30.15F
HOUGHTON LAKE  PTCLDY    65  62  90 CALM      30.20F
MANISTEE       PTCLDY    64  64 100 NE3       30.17S FOG
OSCODA         CLEAR     64  62  93 CALM      30.18F
PELLSTON       PTCLDY    67  62  84 S5        30.15F
ROGERS CITY    CLOUDY    67  60  77 SW7       30.17F
TRAVERSE CITY  PTCLDY    73  67  81 S3        30.16S
$$
MIZ007>008-015-300400-
EASTERN UPPER MICHIGAN

CITY           SKY/WX    TMP DP  RH WIND       PRES   REMARKS
MACKINAC ISLAN PTCLDY    67  64  90 S7        30.14F
NEWBERRY       CLOUDY    67  66  96 S6        30.13F
S. S. MARIE    CLOUDY    67  62  84 SE6       30.14F
$$
MIZ004>006-011>014-085-300400-
CENTRAL UPPER MICHIGAN

CITY           SKY/WX    TMP DP  RH WIND       PRES   REMARKS
MANISTIQUE     CLEAR     69  66  92 S5        30.13S
ESCANABA       PTCLDY    73  69  87 SW8       30.12S
SAWYER-GWINN   CLOUDY    70  68  94 SW6       30.14S
$$
MIZ001>003-009>011-084-300400-
WESTERN UPPER MICHIGAN

CITY           SKY/WX    TMP DP  RH WIND       PRES   REMARKS
IRON MOUNTAIN  MOCLDY    72  67  84 CALM      30.13S
HOUGHTON       CLOUDY    67  60  78 CALM      30.09S
IRONWOOD       TSTM      66  66 100 S5        30.17R
$$

ABBREVIATIONS USED IN REMARKS
   TC - TEMPERATURE IN CELSIUS
  WCI - WIND CHILL INDEX
   HX - HEAT INDEX
  VSB - VISIBILITY





USA.gov is the U.S. government's official web portal to all federal, state and local government web resources and services.